Location: Unspecified
(42.3650°N, 71.1030°W)
Time: 16:24:36
(UTC+00:00)

Tiros 1 - Pass Details

Date: 26 June 2024
Orbit: 624 x 656 km, 48.4° (Epoch: 13 July)

Event Time Altitude Azimuth Distance (km) Brightness Sun altitude
Rises 05:07:48 0° 270° (W) 2,899 - -24.1°
Exits shadow 05:07:48 - 270° (W) 2,896 10.4 -24.1°
Reaches altitude 10° 05:10:12 10° 277° (W) 1,995 9.7 -24.1°
Maximum altitude 05:14:35 43° 349° (N) 879 8.2 -24.0°
Drops below altitude 10° 05:19:00 10° 62° (ENE) 2,009 10.1 -23.9°
Sets 05:21:25 0° 69° (ENE) 2,922 10.9 -23.8°
